Wind_Speed
14 12 11 11 11 10 11 11 10 10 10 10 9 8 7 8 8 9 10 11 12 13 14 15 16 17 17 17 17 18 18 18 18 17 17 17 16 16 15 14 13 13 13 12 12 12 12 12 12 11 10 10 10 11 11 11 11 11 11 11 13 14 14 15 17 19 20 21 22 23 23 24 25 26 27 27 27 28 28 28 27 26 26 25 25
17 16 14 13 13 12 12 12 12 11 11 11 11 9 8 7 6 6 7 8 9 9 10 12 13 14 15 15 15 15 16 16 16 16 15 15 14 14 14 13 12 11 10 10 9 9 9 8 8 8 8 7 8 8 9 10 10 9 9 10 10 11 12 14 16 17 19 20 21 23 24 25 26 27 27 27 27 27 27 27 27 26 25 25 24
21 20 17 15 15 15 15 14 14 13 13 12 12 12 10 8 6 5 4 5 6 7 7 8 9 10 11 12 13 13 13 13 14 14 14 13 12 12 12 12 11 10 9 8 8 7 7 6 5 5 5 5 6 7 8 9 9 8 8 8 9 10 11 13 14 16 18 20 21 23 25 26 26 27 27 28 27 27 26 25 25 25 25 25 24
24 23 21 20 19 18 17 17 16 16 15 14 14 13 13 11 9 7 5 4 4 5 5 6 6 6 7 8 9 10 11 11 11 11 12 11 11 10 10 9 9 8 8 7 6 5 5 4 3 2 2 3 4 5 7 8 8 8 7 8 9 10 11 13 14 16 18 20 22 24 25 26 27 27 27 28 28 27 27 26 25 24 24 23 23
29 26 24 23 22 21 20 20 19 18 18 17 16 16 15 14 12 10 8 7 5 4 4 4 4 4 4 4 5 6 7 8 8 8 8 9 9 9 9 8 8 6 5 5 4 3 2 2 2 1 2 3 4 5 6 7 8 8 8 9 10 11 12 14 15 17 19 21 22 24 25 26 26 26 27 27 27 26 26 26 26 25 24 23 22
33 31 29 27 26 25 24 23 22 21 21 20 19 18 18 17 15 13 12 11 9 7 6 5 4 5 5 4 3 3 3 4 5 5 6 6 6 6 7 7 7 6 5 4 3 1 0 1 2 3 3 4 5 6 8 8 9 9 10 10 11 12 13 15 16 18 20 21 22 23 24 24 25 25 25 26 25 25 25 25 24 23 23 23 23
37 35 33 31 29 29 27 27 26 24 24 23 22 21 21 20 18 16 14 14 13 11 9 7 7 7 7 7 6 5 3 2 3 4 4 4 4 4 4 5 5 6 5 4 3 2 2 2 3 4 5 5 6 7 8 9 10 11 12 13 14 15 16 17 19 20 21 23 24 24 24 24 24 24 24 24 23 22 23 23 24 23 21 21 22
39 39 38 36 35 33 30 30 29 28 27 26 25 24 24 23 21 20 17 16 17 16 14 11 10 10 10 10 10 10 8 5 5 6 5 3 3 2 2 2 3 3 3 3 2 2 2 2 3 4 5 6 7 8 9 10 11 12 14 15 16 17 18 19 20 21 22 23 24 24 24 24 24 24 23 22 20 19 19 19 21 22 22 20 18
39 39 42 43 42 39 34 32 32 31 30 29 28 27 27 26 24 23 22 20 19 19 18 15 13 12 12 13 13 14 13 9 7 7 6 5 4 3 3 2 1 1 1 2 1 1 2 2 3 4 4 5 6 8 9 10 11 12 13 14 15 16 17 18 19 20 20 21 21 22 23 23 22 21 21 20 19 18 18 18 18 18 21 22 19
39 38 40 43 44 42 39 36 34 33 32 31 30 29 29 28 26 25 25 24 23 22 21 19 17 16 15 15 15 15 15 13 11 10 10 10 9 8 6 6 5 4 4 3 4 3 2 2 3 4 4 5 5 7 7 8 8 10 11 12 14 15 16 17 17 17 17 18 18 19 20 20 20 19 18 18 18 17 17 17 17 17 17 20 21
38 38 41 44 44 42 40 38 36 35 33 32 32 32 31 31 29 27 27 27 27 27 26 25 23 21 20 19 17 16 16 17 17 15 14 14 14 13 11 11 10 9 8 7 6 6 5 4 3 3 3 3 4 5 6 7 7 8 9 11 12 13 15 16 16 15 14 15 16 17 18 18 18 17 16 16 17 17 17 16 15 15 15 16 18
40 41 44 46 45 42 40 39 37 35 34 34 35 34 34 35 34 30 29 29 30 30 30 29 28 27 25 23 21 19 19 20 20 20 20 19 18 17 15 15 15 14 14 13 12 10 9 8 6 5 4 4 5 5 5 6 7 8 9 9 10 12 14 16 17 16 14 14 15 16 16 16 16 15 15 15 17 18 19 18 17 15 14 14 14
43 43 45 46 46 44 41 39 36 34 33 34 36 36 35 36 37 34 32 32 31 32 33 32 31 30 29 27 24 21 21 22 23 22 22 22 21 20 19 18 19 18 18 19 18 17 16 15 13 12 11 10 9 8 7 7 7 8 9 9 10 11 13 14 16 16 15 14 14 15 15 15 16 16 15 14 15 17 19 20 20 18 15 14 14
47 45 45 46 48 48 44 39 36 35 35 34 36 37 36 37 38 37 35 35 35 35 35 35 34 33 32 30 28 26 24 25 25 25 24 24 24 24 23 22 21 21 22 23 23 22 22 21 20 19 17 16 15 13 12 10 10 10 10 10 10 11 12 13 15 16 15 15 14 14 15 15 15 16 16 15 15 17 18 20 21 20 18 16 15
53 52 49 48 48 50 48 42 38 39 40 38 37 38 38 39 41 41 37 35 34 35 35 35 36 35 35 33 31 30 29 29 29 28 27 27 27 27 26 25 23 23 24 26 26 26 26 25 24 23 22 21 20 18 17 15 14 13 12 12 12 13 13 13 14 15 14 15 15 15 15 16 16 16 17 17 17 17 18 19 20 20 20 19 18
59 60 60 57 53 51 49 46 43 43 45 43 40 40 40 40 40 40 39 36 32 32 33 35 36 36 36 36 35 34 34 33 32 31 29 29 29 29 29 29 27 26 26 27 28 29 29 29 28 27 25 25 24 23 21 19 17 16 15 15 15 15 15 15 15 15 14 14 15 15 16 17 18 18 18 18 18 19 19 21 22 21 20 20 20
61 64 65 65 61 56 53 50 48 47 47 46 43 41 42 41 38 40 44 42 35 33 35 36 37 37 37 37 37 36 37 37 36 34 33 33 33 32 31 31 31 30 30 30 30 30 31 30 29 29 28 27 27 26 25 23 20 19 18 18 19 18 18 18 17 16 15 14 15 16 17 17 18 19 19 19 19 21 22 23 23 23 23 23 22
63 65 66 66 65 61 57 54 53 51 49 49 47 45 45 44 42 43 48 46 41 40 39 39 39 40 40 40 40 39 39 40 41 40 38 37 37 37 35 33 33 34 34 34 34 32 32 32 31 31 30 30 30 29 27 25 23 22 21 21 22 21 21 21 20 19 18 17 17 18 19 20 20 20 21 22 23 24 25 25 25 25 25 26 26
65 66 66 65 64 62 59 56 56 56 54 53 52 52 51 50 48 48 50 51 50 49 47 45 44 43 44 45 45 44 41 41 43 44 44 42 41 40 39 35 34 36 37 37 37 35 34 34 34 33 34 34 34 33 31 29 27 25 24 24 26 26 26 25 24 24 23 22 23 23 24 25 26 25 26 27 27 27 27 28 29 29 28 29 29
66 67 66 64 62 62 62 60 60 61 59 55 54 56 57 57 57 56 55 55 55 54 53 52 51 52 54 55 54 52 49 46 45 45 45 44 43 42 41 38 37 37 37 36 37 37 38 37 37 36 36 37 37 37 36 35 33 31 28 29 31 33 33 32 30 30 29 28 29 29 30 30 30 30 31 31 32 31 31 32 33 33 33 33 32
68 70 70 66 63 63 64 63 63 63 61 57 56 57 60 62 64 63 57 50 47 49 52 53 52 53 57 59 59 59 57 55 53 51 49 48 45 42 40 39 39 39 39 39 39 39 39 39 37 36 36 36 38 40 40 39 39 37 34 33 35 38 39 39 38 36 34 34 34 34 35 35 35 36 36 36 36 36 36 36 37 37 37 37 37
71 72 73 69 65 65 65 65 65 64 63 60 59 60 64 65 66 66 61 51 45 45 47 49 50 53 55 56 58 60 60 59 56 54 53 51 48 44 41 41 42 42 42 44 43 42 43 43 40 38 37 37 39 42 43 44 43 40 38 38 40 42 43 43 44 42 40 39 39 39 39 40 40 41 41 41 41 41 41 41 40 41 41 41 41
73 74 75 72 69 67 67 67 67 65 64 63 62 64 67 69 68 67 64 60 57 55 54 52 55 59 61 60 60 60 61 60 56 53 53 52 51 48 44 42 42 42 44 46 46 43 44 45 44 43 42 43 44 45 46 46 44 42 43 45 47 48 48 48 48 48 47 46 46 46 47 47 46 45 44 45 45 46 46 45 45 45 44 44 44
75 76 77 77 74 71 70 70 69 67 66 65 65 65 67 70 71 70 68 66 65 64 63 63 63 65 66 66 64 60 59 59 56 53 52 53 52 50 46 42 42 42 44 46 46 45 45 46 47 49 50 50 50 49 50 50 49 48 51 53 54 55 55 54 52 52 52 52 51 52 53 54 54 52 50 49 48 49 49 50 50 51 51 50 50
79 78 79 79 78 75 74 74 73 71 69 68 67 67 67 69 72 73 72 71 70 68 67 67 68 69 70 70 69 66 63 60 58 56 54 53 52 50 47 46 45 44 45 48 50 51 51 52 53 54 55 55 54 54 54 54 55 55 56 56 55 55 55 56 56 57 57 57 57 56 56 57 58 57 56 54 53 52 52 53 55 56 56 56 56
85 83 81 81 81 80 79 79 78 77 76 74 73 72 71 71 72 75 76 76 75 74 72 70 69 69 69 68 68 69 68 64 62 60 58 56 56 53 50 50 50 48 49 52 55 57 58 59 57 56 56 57 57 57 56 56 57 56 55 55 56 57 58 60 62 62 62 62 62 61 60 59 60 60 61 60 60 60 59 58 58 59 59 59 59
92 89 87 85 85 85 84 84 83 82 82 81 80 80 79 76 74 76 79 79 78 79 79 77 75 73 70 66 65 66 68 66 65 64 62 61 62 61 57 56 57 56 56 57 59 60 62 62 61 60 60 60 60 60 60 60 62 62 62 63 64 66 67 67 67 67 66 66 66 66 66 66 66 67 68 69 69 69 68 66 65 64 63 62 61
98 96 94 92 90 90 89 88 87 87 86 85 84 83 83 81 78 78 80 81 81 82 83 82 81 80 77 72 69 68 67 66 64 64 64 64 66 67 65 63 63 64 64 63 63 64 64 65 65 65 65 65 65 66 66 67 68 69 70 71 72 73 74 75 74 73 72 71 71 71 71 72 72 73 73 73 74 74 73 73 72 70 69 68 68
103 101 100 98 97 96 95 94 93 92 91 90 88 86 85 85 83 82 81 82 83 85 85 85 84 84 82 79 77 75 73 70 67 65 64 64 66 69 70 69 69 70 71 71 71 71 71 72 73 72 71 70 71 71 72 73 75 77 78 79 80 80 81 81 80 79 77 75 74 73 74 75 75 75 75 75 75 76 76 77 77 77 77 77 76
104 104 102 101 100 100 100 100 99 98 97 95 94 92 90 89 89 87 86 86 86 87 88 88 87 87 86 84 81 78 76 75 74 71 69 68 68 69 71 72 72 73 74 75 76 77 78 79 79 78 77 77 77 78 80 82 83 84 84 84 84 84 83 82 81 80 79 78 78 79 80 81 80 80 79 78 78 78 79 80 81 83 83 84 84
104 104 103 101 100 99 100 101 102 102 101 100 98 97 95 94 93 91 90 90 90 90 90 90 90 90 90 89 86 82 79 79 79 77 76 75 74 74 75 74 74 75 76 77 78 79 80 81 82 82 82 83 83 84 85 85 85 84 84 84 84 85 84 83 82 81 81 81 82 83 84 84 85 85 85 84 84 84 84 85 86 87 88 89 89
106 104 103 101 99 98 99 99 100 101 101 101 101 99 98 96 96 95 95 95 95 93 92 92 92 92 93 93 92 90 87 86 85 84 83 82 82 84 86 86 85 84 84 84 83 83 83 84 85 86 87 87 88 88 88 89 89 89 89 89 90 90 89 88 87 86 86 86 85 85 86 86 87 88 88 89 90 90 90 90 90 91 91 92 92
111 108 106 103 101 99 99 99 100 100 101 101 100 99 99 98 99 99 99 99 99 98 97 96 95 95 96 97 97 97 96 94 92 91 92 91 92 94 97 99 98 96 94 93 92 92 91 91 91 91 91 91 91 91 92 93 93 94 96 98 98 98 97 96 95 94 93 92 92 91 91 91 91 91 92 93 94 94 94 95 95 95 95 95 95
116 114 112 110 107 105 103 102 102 102 103 102 101 100 100 101 101 102 102 102 102 103 102 101 101 100 101 102 103 103 104 103 101 100 99 98 99 101 105 108 108 106 103 101 99 98 98 98 98 98 98 97 96 97 97 98 99 102 105 105 104 103 103 102 101 101 100 100 100 100 99 99 98 97 97 98 98 98 99 99 99 99 99 100 99
119 118 117 115 114 113 111 109 108 107 107 107 106 105 104 105 105 105 106 106 106 107 107 107 106 107 107 108 108 109 109 110 110 110 109 108 108 110 113 114 113 111 109 106 104 102 101 101 102 102 103 103 104 105 106 107 109 110 110 108 106 105 104 104 104 105 105 105 105 105 104 104 103 103 102 102 103 103 103 104 104 104 104 104 104
121 120 119 119 119 118 118 117 116 115 114 114 113 112 111 111 111 111 111 111 111 112 112 112 112 112 112 112 112 113 114 115 116 117 118 118 118 118 118 116 114 113 111 110 108 107 105 105 104 104 105 106 107 108 109 110 111 110 109 108 107 107 106 106 106 106 107 107 107 107 107 107 106 106 105 105 105 106 106 107 107 107 107 107 107
128 126 124 123 122 121 122 122 122 121 121 120 120 119 118 118 117 118 118 118 118 119 119 118 118 119 119 118 119 120 121 122 123 124 124 125 124 123 121 119 117 115 114 113 112 111 109 108 107 107 106 106 107 107 108 108 108 108 108 108 108 108 108 108 108 109 109 109 109 109 110 109 109 108 108 108 108 108 108 108 109 109 109 109 109
138 137 136 133 131 129 127 126 126 126 126 127 126 126 125 125 124 124 125 125 125 126 126 126 126 126 126 127 127 127 127 127 127 127 127 127 126 125 124 122 120 119 117 116 115 114 112 111 110 110 109 108 108 108 108 108 108 108 108 108 109 109 109 109 110 110 110 111 111 111 111 111 111 110 110 110 110 110 110 110 110 111 111 111 111
139 140 140 140 140 139 138 137 135 134 134 134 133 133 132 132 131 130 130 131 131 132 133 134 133 133 133 133 132 132 130 129 129 129 128 128 128 127 126 125 124 122 121 119 118 116 115 114 113 112 112 111 110 110 110 110 110 110 110 110 110 110 111 111 111 112 112 112 113 113 113 113 113 112 112 112 112 112 112 112 112 113 113 113 113
139 139 140 140 141 141 142 142 142 141 140 140 140 140 139 139 138 137 136 136 136 137 137 138 138 139 138 138 137 136 135 134 133 132 132 131 131 130 130 129 128 127 126 124 123 122 120 118 117 115 114 113 113 112 112 112 112 111 111 111 111 111 112 112 112 112 113 113 114 114 115 115 115 114 114 114 114 114 115 115 115 115 115 115 115
140 140 140 140 140 140 141 141 141 141 142 142 143 143 144 144 143 142 141 140 139 139 139 139 139 140 140 139 139 138 138 137 137 137 137 136 135 135 134 134 133 132 131 130 128 126 124 122 120 118 116 114 113 113 113 113 113 113 113 113 113 113 113 113 113 114 114 114 115 115 115 115 115 115 115 115 115 115 116 116 116 116 116 116 116
141 141 141 141 141 141 141 141 141 141 141 141 141 142 142 143 142 142 141 141 141 141 140 140 140 139 139 139 139 138 137 136 136 136 135 135 135 134 134 133 133 132 131 129 128 126 124 122 120 119 117 116 116 115 115 115 115 115 115 115 114 114 114 114 115 115 115 115 115 115 115 115 115 115 115 115 115 115 115 115 115 115 115 115 115
142 142 142 142 142 141 142 142 141 141 141 141 141 141 141 140 140 140 140 140 140 139 139 139 139 138 138 137 137 136 135 134 133 132 131 131 131 130 129 129 128 127 126 125 123 122 121 120 119 119 118 118 117 117 116 115 115 114 114 114 114 114 114 115 115 115 115 114 114 114 113 114 114 114 114 114 114 114 113 113 113 113 113 113 113
143 143 143 143 142 142 143 143 143 142 142 141 142 142 141 141 140 139 139 139 138 138 137 137 137 137 136 136 136 135 135 134 133 132 131 130 130 129 129 128 128 127 126 125 125 124 123 122 122 121 121 119 118 117 116 115 115 114 114 114 114 114 114 114 114 114 114 113 113 113 113 113 113 113 113 112 112 112 112 111 112 112 112 112 113
143 144 144 144 144 144 144 144 144 143 142 142 142 142 142 142 141 141 140 139 137 136 134 134 134 135 136 137 137 136 136 135 134 133 133 133 133 133 133 134 134 133 133 133 132 130 129 127 126 125 124 123 122 121 121 120 119 118 117 117 116 116 116 116 116 115 115 114 114 114 114 114 113 113 113 113 113 113 114 114 114 114 114 115 115
141 142 144 144 145 145 145 145 145 145 145 144 144 143 143 142 142 142 142 141 139 137 135 134 134 134 135 136 136 137 136 136 136 136 136 136 137 137 137 137 137 136 135 134 133 132 130 129 128 127 127 126 126 126 125 124 123 122 122 121 121 120 119 119 118 118 117 117 116 116 116 116 116 116 116 116 116 117 117 117 117 117 117 118 118
136 138 140 142 143 144 145 145 145 146 146 146 146 145 145 144 144 144 143 142 141 140 139 139 138 138 137 137 137 137 137 137 136 136 135 135 135 135 135 134 134 134 133 133 133 132 132 131 130 130 129 128 128 127 126 125 125 125 124 124 123 122 121 120 120 119 119 119 118 118 118 119 119 119 119 119 119 119 119 119 119 119 120 120 120
127 129 132 134 136 139 141 142 144 145 145 146 146 146 146 146 146 146 145 144 144 143 143 142 142 141 141 140 140 140 140 139 138 137 136 135 133 133 132 132 132 132 132 131 131 132 132 132 132 132 131 131 129 128 127 126 126 126 126 125 124 123 123 122 121 121 121 120 120 120 120 120 121 120 121 121 121 121 120 120 120 120 120 120 121
117 119 121 123 125 128 131 134 136 138 140 142 143 144 145 145 146 146 146 145 145 144 144 144 143 143 142 142 142 142 142 142 141 140 139 138 137 136 135 134 133 132 131 130 130 130 130 130 131 131 131 131 131 130 129 129 129 128 128 127 127 126 126 125 125 124 124 123 123 123 123 123 123 123 123 123 123 122 122 122 123 123 123 124 124
108 110 111 113 115 117 121 124 127 129 131 133 135 136 137 139 140 141 142 143 143 143 143 143 143 143 142 142 142 142 142 142 142 142 141 140 139 139 138 137 135 134 133 132 131 131 130 130 129 129 129 129 130 130 131 131 131 131 130 130 129 129 129 128 128 127 127 127 126 126 126 126 126 126 126 126 126 126 126 127 128 128 129 129 129
100 102 103 105 107 109 113 116 117 119 121 123 124 125 127 128 130 131 133 134 136 138 139 139 140 140 140 140 141 141 142 142 141 141 140 140 140 139 139 138 137 136 135 134 133 132 132 131 130 130 130 130 131 131 132 132 132 132 132 132 132 131 131 131 130 129 129 129 129 129 129 129 129 129 129 129 130 130 131 132 132 133 133 133 132
Wind_Direction
257 262 265 270 276 283 291 297 303 309 312 318 326 339 357 16 35 43 44 46 48 53 60 65 67 67 65 65 66 68 69 68 68 70 73 76 80 84 91 97 102 108 114 119 122 120 111 105 101 98 95 86 74 63 56 50 47 45 45 46 44 42 41 41 39 36 33 31 29 28 29 30 31 32 33 33 34 34 36 37 38 39 40 42 43
254 259 262 264 268 271 276 282 287 293 297 302 308 313 322 343 5 26 35 38 41 42 46 56 63 67 67 66 65 66 68 69 67 67 69 72 77 82 86 91 95 100 107 113 119 123 120 112 104 96 90 81 67 55 49 47 46 46 44 41 37 34 33 31 29 27 25 24 23 22 22 23 24 25 26 26 27 28 28 29 29 30 31 33 37
254 257 259 259 262 264 265 268 273 278 283 287 293 297 301 311 326 341 2 20 29 33 35 41 50 60 67 68 67 65 64 67 68 68 67 68 71 77 83 90 96 101 106 111 115 121 126 125 118 104 85 69 53 40 34 32 31 31 31 29 25 21 19 17 17 17 17 16 17 17 17 17 17 18 19 19 20 21 23 23 23 23 23 24 27
256 257 258 257 258 261 261 261 263 265 270 276 279 283 287 292 303 310 313 325 351 9 21 29 34 43 58 68 71 70 65 63 65 67 69 68 68 70 74 78 87 97 105 114 121 128 136 143 145 127 66 32 21 17 14 12 12 11 11 10 8 6 5 5 6 8 9 9 10 10 10 10 10 11 12 12 13 14 14 15 17 18 19 20 21
258 259 258 257 255 256 257 257 259 259 260 264 268 271 275 279 286 295 298 298 302 321 345 5 14 12 22 50 67 75 74 70 67 66 66 67 67 69 69 65 66 75 86 99 112 129 150 173 198 234 299 326 337 344 348 350 351 351 352 354 354 354 354 356 358 0 2 2 3 3 3 3 3 4 5 6 7 7 8 9 11 12 13 15 19
258 258 258 256 254 253 253 253 254 256 255 256 259 263 266 269 273 280 287 290 290 290 299 317 328 329 333 346 2 27 69 81 75 73 75 71 67 67 71 67 61 59 60 60 64 76 205 257 273 281 287 297 307 314 321 328 333 336 339 342 343 345 346 349 351 353 355 356 356 356 356 356 357 358 -0 2 3 3 4 6 8 10 11 10 12
254 255 257 255 251 250 251 251 251 253 253 253 253 256 259 261 263 269 276 282 285 283 281 289 297 301 308 314 317 320 325 0 15 25 50 67 69 63 61 60 55 54 55 54 42 20 331 306 294 294 295 297 301 306 312 318 324 328 332 334 336 338 340 341 343 345 346 347 348 348 348 349 350 352 355 358 1 4 4 5 5 7 12 13 9
254 255 256 255 252 251 251 252 252 252 253 253 253 252 253 255 257 261 267 271 277 280 278 279 284 288 294 300 304 307 312 323 330 329 339 12 38 41 40 36 36 36 33 36 37 27 8 332 304 295 294 299 303 306 309 314 320 323 324 326 328 329 331 332 333 336 338 339 340 340 340 342 344 347 349 352 359 5 8 9 7 3 5 14 17
253 254 255 255 254 254 252 249 250 252 253 255 257 254 251 251 253 256 260 265 271 276 277 277 278 280 285 291 297 303 309 312 308 298 292 295 322 339 333 312 304 315 326 324 318 329 351 349 336 328 319 313 313 314 316 317 317 316 315 316 318 320 321 322 324 327 331 333 334 334 334 336 339 343 347 350 357 5 9 12 12 7 -0 2 13
248 247 252 256 257 256 252 248 248 250 252 255 257 257 251 247 249 253 257 262 267 270 271 271 272 273 276 280 286 293 297 296 293 288 280 274 282 302 312 304 291 276 266 264 260 259 267 287 319 342 350 345 337 331 327 325 322 318 317 316 317 317 317 317 319 322 325 327 328 328 330 334 338 343 348 353 358 4 8 10 12 11 5 358 -0
245 244 249 256 259 258 251 247 247 248 250 253 255 256 251 244 244 248 253 258 263 266 267 269 269 270 272 273 278 285 287 285 284 284 280 276 279 288 294 294 292 286 277 270 263 258 256 259 276 308 339 346 337 328 324 321 321 322 323 323 323 322 320 319 320 323 325 325 324 326 330 335 340 346 353 358 2 5 6 10 11 10 8 3 356
245 247 249 250 253 252 245 243 245 247 248 251 253 255 252 244 240 242 247 253 258 262 264 266 268 269 270 270 273 277 277 278 279 281 281 282 283 286 286 286 288 288 287 283 280 280 279 281 289 298 296 294 302 312 316 315 314 315 317 320 320 320 319 319 320 322 325 326 325 327 332 335 337 344 353 359 4 7 6 7 12 11 6 3 357
237 242 244 243 245 245 240 239 242 244 248 251 252 254 253 247 241 242 245 246 250 256 260 261 264 265 267 268 269 269 269 270 272 274 278 281 282 282 283 283 285 287 288 287 286 287 288 290 294 296 294 293 298 304 306 307 307 311 314 315 314 314 314 314 314 315 318 320 321 324 328 330 331 334 340 347 357 2 3 3 5 8 5 360 355
227 230 233 237 242 243 238 237 239 242 246 250 249 248 249 249 245 244 247 248 248 251 253 256 258 261 263 265 266 266 266 266 267 268 271 277 280 281 280 281 283 284 285 286 287 288 289 289 290 291 292 295 297 297 296 296 298 301 305 308 309 309 308 308 307 307 309 312 314 317 319 320 322 324 326 332 341 348 351 352 354 357 358 356 352
223 224 225 232 240 240 236 236 237 240 245 247 246 243 242 244 244 243 248 252 250 248 248 251 255 257 259 261 263 265 266 267 267 266 268 272 276 278 279 278 278 279 280 283 284 285 286 287 287 289 291 291 292 293 294 294 293 293 294 296 298 299 299 298 297 297 300 303 306 308 309 310 311 313 316 321 327 333 335 337 340 345 348 347 344
222 224 225 230 236 237 237 238 237 239 243 245 245 244 242 242 242 244 248 251 250 251 251 250 253 255 257 258 259 261 264 268 269 266 266 270 272 274 276 276 274 274 275 278 281 281 282 283 285 287 288 288 290 291 292 292 290 288 287 288 290 290 290 288 285 284 289 294 297 299 300 301 303 305 309 314 318 320 320 322 325 329 332 334 333
222 225 227 230 235 238 239 238 235 236 239 238 237 241 244 245 245 245 247 249 253 257 254 251 253 257 258 258 257 257 261 265 268 267 267 270 271 270 271 273 273 273 273 275 277 278 279 280 281 282 284 286 287 287 288 288 287 285 284 286 288 288 287 283 280 280 283 286 289 291 293 295 296 299 303 307 308 309 311 314 316 317 318 319 321
224 227 229 231 235 236 236 234 232 233 235 233 232 233 237 242 244 243 242 244 252 260 256 252 255 259 260 259 257 258 260 263 265 266 266 268 269 268 268 269 271 272 272 272 273 274 275 276 277 279 282 284 284 283 282 283 284 283 283 284 284 284 282 282 281 280 281 281 282 283 285 287 290 293 297 298 299 301 304 308 309 309 310 312 313
224 227 229 232 233 233 232 231 231 232 233 233 233 232 235 239 242 242 241 245 254 259 255 252 254 256 259 260 259 260 262 263 264 263 263 265 266 266 267 268 269 269 269 270 271 270 270 271 274 277 279 281 281 279 279 280 281 283 284 285 284 282 279 277 276 276 276 277 278 280 281 282 285 288 289 290 292 294 297 300 302 302 304 305 307
224 226 229 231 232 232 232 231 230 230 232 233 233 234 236 238 240 243 247 250 255 256 252 250 251 253 255 257 258 258 260 261 262 261 260 262 263 264 266 268 267 266 265 265 267 268 268 269 271 274 276 278 277 275 275 275 277 278 280 284 287 287 283 278 274 273 273 274 276 279 281 282 284 284 285 286 288 289 290 292 294 296 298 299 300
224 226 229 230 229 229 230 229 228 228 230 233 234 234 236 237 238 242 246 248 249 250 249 248 249 250 252 253 254 256 257 259 261 261 259 260 261 261 264 266 266 264 262 261 263 265 266 267 268 269 272 273 272 271 271 271 271 273 275 281 287 290 287 282 277 275 275 276 278 279 280 282 283 283 284 285 285 286 286 288 290 291 293 294 296
223 226 228 227 225 226 226 226 227 227 228 230 231 232 234 236 237 240 241 239 238 241 243 244 246 247 248 249 251 253 255 256 259 259 258 258 258 257 257 258 259 260 262 264 266 266 265 265 266 266 268 269 268 268 269 270 271 272 275 281 286 289 289 285 282 280 280 281 282 283 283 283 283 282 282 283 283 285 286 286 288 289 290 291 292
223 224 226 225 223 224 226 226 227 228 228 229 230 231 233 235 237 239 239 238 239 241 242 244 244 245 246 248 251 253 253 253 254 256 256 256 256 254 253 254 256 258 264 269 270 267 262 262 264 267 270 271 271 269 269 269 270 269 273 279 284 287 288 288 286 284 283 282 284 286 287 287 286 284 283 282 282 283 284 285 286 288 289 289 289
223 224 225 225 224 224 225 226 228 229 229 230 232 234 236 236 237 239 240 241 242 244 245 246 246 247 247 249 251 253 251 250 250 252 254 255 254 251 250 253 255 258 261 264 264 262 259 261 266 270 272 273 272 271 269 267 265 266 270 276 281 284 287 288 288 287 285 284 284 286 287 289 289 288 286 285 284 283 283 284 286 287 289 290 289
225 225 226 226 226 225 225 225 227 228 229 230 231 235 238 239 239 240 241 242 243 243 244 245 247 248 249 250 251 251 251 250 248 247 249 252 253 250 247 248 250 251 251 253 255 257 258 262 265 267 269 271 271 271 269 267 265 267 271 276 279 282 285 286 286 287 286 286 285 285 286 287 288 288 287 286 285 285 284 284 285 287 288 290 290
228 228 228 228 228 227 227 227 228 228 229 230 231 234 238 240 241 242 243 244 244 244 244 244 245 246 247 248 250 250 251 251 248 246 246 250 251 249 244 241 242 242 242 245 250 253 257 260 262 262 264 266 268 268 268 267 267 269 272 275 277 279 280 282 283 285 285 285 283 283 283 283 284 285 285 285 285 285 285 284 285 286 288 289 290
232 231 231 231 231 231 230 230 231 231 231 231 232 233 236 239 242 242 243 244 244 245 245 244 243 243 243 243 243 246 249 249 248 247 247 248 249 249 244 240 240 242 243 246 250 254 256 258 259 260 262 263 264 265 265 264 265 268 271 273 275 276 278 280 281 282 282 282 282 281 281 281 281 282 282 283 284 285 285 285 285 286 288 289 290
234 234 234 233 233 233 233 234 234 235 234 233 233 233 235 238 240 241 241 242 243 244 244 244 243 243 243 240 238 241 245 247 247 248 248 248 249 249 248 244 243 244 247 251 253 255 257 258 260 260 261 261 263 264 265 265 267 269 271 273 274 276 278 279 280 280 280 280 280 280 279 280 280 281 282 282 283 284 284 284 285 286 287 288 289
234 235 236 235 235 234 235 236 237 237 237 236 236 235 234 235 238 240 240 241 242 243 243 242 242 242 242 240 238 240 242 243 245 247 247 248 248 248 248 247 246 247 248 251 253 254 256 259 261 261 262 262 263 264 266 267 269 271 272 273 275 276 278 279 279 279 279 279 279 279 280 280 281 281 282 283 283 283 283 284 285 286 287 288 288
232 233 234 235 235 235 235 236 237 238 238 238 238 238 236 235 236 238 239 240 241 241 240 240 239 240 241 240 239 239 240 242 242 243 244 246 248 249 249 249 249 249 250 251 253 255 256 258 260 261 262 263 264 266 267 269 271 271 272 273 274 275 276 277 278 278 278 278 279 280 280 281 281 282 282 282 282 282 283 283 284 285 286 287 288
231 231 232 232 233 234 235 235 236 237 238 238 239 239 238 237 236 236 238 239 240 239 238 238 238 239 241 242 241 239 240 241 242 241 241 243 246 249 250 251 251 252 253 254 254 256 258 259 260 261 262 264 265 266 268 269 270 271 272 273 274 275 275 275 275 276 276 277 277 278 279 280 281 281 282 282 282 282 282 283 283 284 285 285 286
229 229 229 230 230 231 232 234 234 235 235 236 237 237 238 237 236 236 236 238 239 239 238 238 238 240 242 244 245 244 242 242 242 242 243 245 247 250 254 257 257 257 257 257 256 256 257 258 259 261 262 263 264 266 267 269 270 271 273 274 275 275 275 274 274 275 276 276 277 277 277 277 278 279 280 281 281 282 282 283 283 284 284 285 285
230 230 229 229 229 230 230 232 233 233 233 234 235 236 236 236 236 236 236 237 238 239 239 239 240 242 244 246 248 249 249 247 245 245 246 248 251 253 258 263 265 264 263 262 260 258 258 258 259 260 261 262 263 264 265 266 268 270 272 273 274 274 274 274 275 275 276 276 277 277 276 276 277 277 277 278 279 280 281 281 282 283 283 284 284
230 231 231 231 231 231 231 231 232 233 234 234 234 235 236 237 238 238 238 239 239 240 240 241 242 244 246 248 250 252 253 253 251 250 250 251 252 255 260 265 268 270 269 267 265 263 262 261 260 261 261 261 262 263 263 264 266 268 271 272 273 272 272 272 273 273 274 275 275 276 276 276 276 276 276 277 277 278 279 280 280 281 282 282 283
232 232 233 233 234 234 234 234 234 235 235 236 236 236 238 239 240 241 241 242 242 242 243 244 245 247 248 250 251 253 254 256 257 257 257 257 258 260 264 267 269 271 271 270 269 268 266 265 263 263 262 262 262 263 264 265 267 269 271 272 272 272 272 272 272 272 272 273 274 274 275 275 275 275 275 276 276 277 277 278 279 280 280 281 281
233 234 234 235 235 236 236 237 237 238 238 239 240 240 240 241 243 243 244 245 246 246 246 247 248 249 249 250 251 253 255 257 259 260 262 263 264 266 267 268 269 269 270 270 269 269 268 267 267 266 265 265 265 265 265 266 268 269 270 271 272 272 272 272 273 273 273 273 274 274 275 275 275 275 275 276 276 276 277 277 278 279 279 280 280
237 237 237 237 237 238 238 239 240 240 241 242 243 243 243 244 245 246 247 249 250 250 250 250 250 251 252 253 254 255 257 259 260 262 263 265 266 267 268 268 268 269 269 269 269 269 269 269 269 268 268 268 267 267 268 268 269 269 270 271 271 272 272 273 273 273 274 274 274 275 275 275 276 276 276 277 277 277 277 278 278 278 279 279 279
240 240 240 240 240 240 240 240 241 242 243 244 245 246 247 247 248 249 250 251 252 253 254 254 254 255 256 257 257 258 259 260 262 263 264 265 266 266 267 268 268 269 269 269 269 269 270 270 269 269 269 269 269 269 269 269 269 270 270 270 271 271 272 272 273 273 274 274 275 275 275 276 276 277 277 277 278 278 278 278 278 279 279 279 279
241 242 242 242 243 242 242 243 243 244 244 245 246 247 248 250 251 252 253 254 255 255 256 257 257 257 258 259 260 260 261 261 262 263 263 264 265 265 266 267 268 268 268 269 269 269 269 269 269 269 269 270 270 270 270 270 270 270 271 271 271 272 272 272 273 273 274 274 275 275 275 276 276 277 277 277 278 278 278 278 278 278 279 279 279
243 243 243 243 244 244 244 245 245 245 246 246 246 247 248 250 251 252 253 254 255 256 257 258 258 258 259 259 260 261 261 262 262 262 263 263 264 265 265 266 267 267 268 268 269 269 270 270 270 270 270 270 270 270 270 271 271 271 271 272 272 272 273 273 273 273 273 274 274 275 275 275 276 276 276 277 277 277 277 277 277 278 278 279 279
244 244 244 244 245 245 245 246 246 246 247 247 247 247 248 249 250 251 252 253 254 255 256 257 258 259 259 259 260 261 261 262 263 263 263 264 264 265 265 266 266 267 268 269 270 270 271 271 271 271 271 271 271 271 271 271 271 271 272 272 272 272 273 273 273 273 273 274 274 274 275 275 275 276 276 276 276 276 276 277 277 277 278 278 278
245 245 245 245 246 246 246 247 247 247 248 248 248 248 249 249 250 250 251 252 253 254 255 256 257 258 259 260 260 260 261 262 263 263 264 264 265 265 265 266 266 267 268 268 269 270 271 271 271 271 271 271 271 271 271 272 272 272 272 272 273 273 273 273 273 273 273 274 274 274 275 275 276 276 276 276 276 276 276 277 277 278 278 278 278
246 246 246 246 246 247 247 247 248 248 248 249 249 250 250 251 251 251 252 252 253 254 254 255 256 258 259 260 261 261 261 261 262 263 263 264 265 265 265 265 266 266 266 267 268 269 269 270 271 271 271 271 271 272 272 272 272 272 273 273 273 273 273 273 273 274 274 274 275 275 275 275 275 275 276 276 276 277 277 277 277 277 278 278 278
247 247 247 247 247 247 248 248 248 248 249 249 250 250 251 251 252 252 253 253 254 254 255 255 256 257 258 259 260 261 262 262 262 263 263 264 264 265 265 266 266 266 266 267 267 268 269 270 271 271 271 271 271 272 272 272 272 272 273 273 273 273 273 274 274 274 275 275 275 275 275 275 275 275 276 276 276 277 277 277 277 278 278 278 278
247 247 248 248 248 248 248 249 249 249 249 249 250 250 251 251 252 252 253 253 254 254 255 255 256 256 257 258 259 260 261 262 262 263 263 264 265 266 266 267 267 268 268 268 269 269 270 270 271 271 271 271 271 272 272 273 273 273 273 273 273 273 274 274 275 275 275 276 276 276 276 276 276 276 276 277 277 277 278 278 278 278 279 279 279
248 248 248 249 249 249 249 249 250 250 250 250 250 250 251 251 252 252 252 253 253 253 254 254 255 256 257 257 258 259 260 261 262 263 264 265 266 266 267 268 268 269 269 270 270 270 270 271 271 271 271 272 272 273 273 274 274 273 273 273 274 274 275 275 276 276 276 276 276 277 277 277 277 277 278 278 278 279 279 279 280 280 280 280 281
248 249 249 249 250 250 250 250 250 251 251 251 251 251 251 252 252 252 252 253 253 253 254 254 254 255 256 257 257 258 259 260 261 262 263 264 265 266 267 268 269 269 270 271 271 271 272 272 272 272 272 272 273 273 274 274 274 274 275 275 275 275 276 276 276 276 277 277 277 278 278 278 279 279 279 280 280 280 280 280 281 281 281 281 280
250 250 250 250 250 251 251 251 251 251 251 252 252 252 252 252 252 253 253 253 253 254 254 254 255 255 255 256 256 257 258 259 259 260 261 262 263 264 265 266 268 269 269 270 271 272 272 272 273 273 273 273 273 273 274 274 274 275 275 276 276 276 276 276 276 276 277 277 277 278 278 278 278 279 279 279 280 280 280 280 280 280 281 281 281
251 251 251 251 251 251 252 252 252 252 252 252 252 252 253 253 253 253 254 254 254 254 254 255 255 255 256 256 256 257 257 258 259 259 260 261 262 263 264 264 265 266 267 268 269 270 271 271 272 273 273 274 274 274 274 274 275 275 276 276 277 277 277 277 277 278 278 278 278 278 278 279 279 280 280 281 281 282 282 283 283 284 284 284 284
252 253 253 252 252 252 252 252 252 252 253 253 253 253 253 253 253 254 254 254 255 255 255 255 255 256 256 256 257 257 258 258 259 259 260 260 261 262 262 263 264 264 265 265 266 267 268 268 269 270 271 272 272 273 274 274 275 276 276 276 277 277 278 278 279 279 279 280 280 280 281 281 282 282 283 283 284 284 284 285 285 285 285 286 286
254 254 254 254 254 253 252 252 252 252 253 253 254 254 254 254 254 254 254 254 255 255 255 256 256 256 256 256 257 257 258 258 259 259 259 260 260 261 261 262 262 263 263 264 264 265 266 266 267 267 268 269 270 271 272 273 273 274 275 275 276 276 277 277 278 278 279 279 280 280 281 281 282 282 282 283 283 283 283 284 284 285 285 285 285
Height
11023 11024 11025 11026 11026 11027 11027 11027 11028 11028 11028 11028 11028 11027 11027 11027 11026 11026 11025 11025 11025 11025 11024 11023 11022 11021 11021 11020 11019 11019 11018 11018 11018 11018 11018 11019 11019 11019 11019 11019 11019 11019 11019 11019 11019 11020 11020 11020 11019 11019 11019 11018 11018 11017 11016 11016 11015 11015 11014 11014 11013 11012 11011 11010 11009 11008 11007 11006 11004 11003 11002 11001 11000 10998 10997 10996 10995 10993 10992 10991 10989 10988 10986 10985 10983
11022 11023 11024 11024 11025 11026 11026 11027 11027 11028 11028 11028 11027 11027 11027 11027 11027 11026 11026 11025 11025 11025 11025 11025 11024 11023 11022 11022 11021 11021 11020 11020 11020 11020 11020 11020 11020 11020 11020 11021 11021 11021 11021 11020 11020 11020 11020 11020 11020 11020 11020 11019 11019 11018 11017 11017 11016 11016 11015 11015 11014 11013 11012 11011 11010 11010 11008 11007 11006 11005 11004 11003 11002 11001 10999 10998 10997 10996 10994 10993 10991 10990 10988 10987 10985
11020 11021 11022 11023 11023 11024 11025 11026 11026 11027 11027 11027 11027 11027 11027 11027 11027 11026 11026 11026 11026 11025 11025 11026 11025 11025 11024 11024 11023 11023 11022 11021 11021 11021 11021 11021 11021 11022 11022 11022 11022 11022 11021 11021 11021 11021 11021 11021 11021 11021 11020 11020 11020 11019 11018 11018 11017 11017 11016 11016 11015 11014 11013 11012 11011 11011 11010 11009 11008 11007 11005 11004 11003 11002 11001 10999 10998 10997 10996 10995 10994 10992 10990 10988 10987
11017 11019 11020 11021 11021 11022 11023 11024 11025 11025 11026 11026 11026 11026 11026 11026 11026 11026 11026 11026 11026 11025 11025 11026 11026 11026 11025 11025 11025 11024 11024 11023 11023 11022 11022 11022 11022 11022 11023 11023 11022 11022 11022 11022 11022 11022 11022 11021 11021 11021 11021 11021 11020 11020 11019 11019 11018 11018 11017 11016 11016 11015 11014 11013 11012 11012 11011 11010 11009 11007 11006 11005 11004 11002 11001 11000 10999 10998 10997 10996 10995 10993 10992 10990 10988
11015 11016 11017 11018 11019 11019 11020 11021 11022 11023 11024 11025 11025 11026 11026 11026 11025 11025 11025 11025 11025 11025 11025 11026 11026 11026 11026 11026 11025 11025 11025 11024 11024 11024 11023 11023 11023 11023 11023 11023 11023 11023 11022 11022 11022 11022 11022 11022 11022 11021 11021 11021 11020 11020 11019 11019 11019 11018 11018 11017 11016 11015 11014 11014 11013 11012 11011 11010 11009 11008 11007 11005 11004 11003 11002 11001 11000 10999 10998 10996 10995 10994 10993 10992 10991
11012 11013 11014 11015 11016 11016 11017 11018 11019 11020 11021 11022 11023 11024 11024 11025 11024 11024 11024 11024 11024 11025 11025 11025 11025 11026 11026 11026 11026 11025 11025 11025 11025 11025 11024 11024 11023 11023 11023 11023 11023 11023 11023 11023 11022 11022 11022 11022 11022 11022 11021 11021 11020 11020 11019 11019 11019 11019 11018 11017 11017 11016 11015 11014 11013 11012 11012 11011 11010 11009 11008 11006 11005 11004 11003 11002 11001 11000 10998 10997 10996 10995 10994 10992 10991
11008 11009 11010 11011 11011 11012 11013 11014 11016 11017 11018 11019 11020 11021 11022 11023 11023 11023 11023 11023 11023 11024 11024 11025 11025 11025 11025 11025 11025 11025 11025 11025 11025 11025 11025 11025 11024 11024 11023 11023 11023 11023 11023 11022 11022 11022 11022 11022 11022 11021 11021 11020 11020 11020 11019 11019 11019 11019 11018 11018 11017 11016 11015 11014 11013 11013 11012 11011 11010 11009 11008 11007 11006 11005 11004 11003 11002 11001 10999 10998 10996 10996 10995 10994 10992
11004 11004 11005 11006 11006 11008 11010 11011 11012 11014 11015 11016 11018 11019 11019 11021 11022 11022 11023 11022 11022 11022 11023 11024 11024 11023 11023 11023 11024 11024 11024 11024 11025 11025 11025 11025 11025 11024 11024 11023 11023 11023 11023 11023 11022 11022 11022 11022 11021 11021 11020 11020 11020 11019 11019 11019 11019 11019 11018 11017 11017 11016 11015 11014 11013 11013 11012 11011 11010 11009 11008 11007 11006 11005 11004 11004 11003 11002 11001 10999 10997 10995 10994 10994 10994
11000 11000 10999 10999 11001 11003 11006 11007 11008 11010 11012 11014 11015 11016 11017 11018 11020 11021 11021 11021 11021 11021 11022 11022 11022 11022 11022 11022 11022 11022 11023 11023 11023 11023 11023 11024 11024 11024 11024 11024 11023 11023 11022 11022 11022 11022 11022 11021 11021 11020 11020 11019 11019 11019 11019 11018 11018 11018 11017 11017 11016 11015 11015 11014 11014 11013 11012 11011 11010 11009 11008 11007 11006 11006 11005 11004 11003 11003 11002 11000 10999 10997 10995 10994 10994
10995 10997 10994 10993 10995 10998 11001 11002 11004 11006 11008 11010 11011 11012 11014 11015 11017 11018 11019 11019 11020 11020 11020 11020 11020 11020 11020 11020 11021 11021 11022 11021 11021 11021 11021 11022 11022 11022 11023 11023 11023 11022 11022 11021 11021 11021 11021 11021 11020 11020 11020 11019 11019 11018 11018 11017 11017 11017 11016 11016 11015 11014 11014 11013 11013 11013 11012 11011 11010 11009 11008 11007 11007 11006 11005 11004 11004 11003 11002 11001 11000 10999 10997 10995 10994
10990 10992 10991 10989 10990 10992 10995 10997 10999 11001 11003 11005 11007 11008 11009 11011 11013 11015 11016 11017 11018 11018 11018 11018 11018 11018 11018 11018 11019 11020 11020 11019 11019 11019 11019 11020 11020 11021 11021 11021 11021 11021 11021 11021 11020 11020 11020 11020 11019 11019 11019 11019 11018 11018 11017 11017 11016 11016 11015 11015 11014 11014 11013 11012 11012 11012 11012 11011 11010 11009 11008 11007 11006 11006 11005 11004 11004 11003 11002 11002 11001 11000 10998 10997 10995
10987 10987 10986 10985 10985 10987 10989 10991 10993 10995 10998 11000 11002 11003 11004 11006 11008 11010 11012 11013 11014 11014 11015 11015 11016 11016 11016 11016 11017 11018 11018 11017 11017 11017 11017 11017 11018 11018 11019 11019 11019 11020 11020 11019 11019 11019 11019 11019 11019 11019 11018 11018 11017 11017 11017 11017 11016 11016 11015 11014 11014 11013 11012 11012 11011 11011 11011 11011 11010 11009 11008 11007 11006 11006 11005 11005 11004 11003 11002 11001 11001 11000 10999 10998 10996
10981 10981 10982 10981 10980 10981 10984 10985 10988 10990 10993 10994 10997 10998 10999 11001 11003 11005 11007 11008 11009 11009 11010 11011 11011 11011 11012 11013 11014 11015 11015 11014 11014 11014 11014 11014 11015 11015 11016 11016 11017 11017 11017 11017 11017 11017 11017 11017 11018 11018 11017 11017 11016 11016 11016 11016 11015 11015 11015 11014 11014 11013 11012 11012 11011 11011 11010 11010 11009 11009 11008 11007 11006 11005 11005 11004 11004 11003 11002 11001 11000 11000 10999 10998 10997
10972 10975 10978 10978 10975 10975 10978 10981 10983 10986 10988 10990 10992 10993 10995 10997 10999 11000 11002 11003 11004 11004 11004 11004 11005 11006 11006 11008 11009 11011 11012 11012 11011 11012 11012 11012 11012 11012 11013 11014 11014 11014 11014 11014 11014 11014 11014 11014 11014 11015 11015 11015 11015 11014 11014 11014 11014 11014 11014 11013 11013 11012 11011 11011 11010 11010 11009 11009 11009 11008 11007 11006 11006 11005 11004 11003 11003 11003 11002 11001 11000 11000 10999 10998 10997
10963 10968 10972 10973 10970 10969 10972 10976 10979 10981 10983 10985 10987 10989 10991 10993 10994 10996 10998 10999 10998 10998 10998 10999 11000 11000 11001 11002 11004 11005 11007 11008 11009 11009 11009 11009 11009 11010 11010 11011 11011 11011 11011 11010 11010 11011 11011 11011 11011 11011 11012 11012 11012 11012 11011 11011 11011 11011 11011 11011 11011 11010 11009 11009 11008 11008 11007 11007 11007 11007 11006 11005 11004 11003 11003 11002 11002 11001 11001 11000 11000 11000 10999 10998 10997
10956 10960 10963 10965 10964 10963 10966 10971 10974 10976 10978 10981 10983 10985 10987 10989 10992 10995 10995 10994 10994 10994 10995 10995 10995 10995 10996 10997 10999 11000 11001 11003 11004 11005 11006 11006 11006 11007 11007 11008 11008 11008 11008 11007 11007 11007 11008 11008 11008 11008 11008 11008 11009 11009 11008 11008 11008 11008 11008 11008 11008 11008 11007 11007 11006 11006 11005 11005 11005 11005 11005 11004 11003 11002 11002 11001 11000 10999 10999 10999 10998 10998 10998 10997 10996
10950 10952 10953 10956 10957 10958 10961 10965 10968 10970 10972 10974 10976 10979 10982 10985 10989 10991 10989 10989 10991 10992 10992 10992 10992 10992 10992 10993 10994 10995 10997 10999 11000 11001 11002 11003 11003 11003 11004 11004 11004 11005 11005 11004 11004 11004 11004 11004 11005 11005 11005 11005 11005 11006 11005 11005 11005 11005 11005 11005 11005 11005 11004 11004 11004 11004 11003 11003 11003 11003 11003 11003 11002 11001 11001 11000 10999 10998 10997 10997 10996 10996 10995 10995 10995
10943 10944 10946 10948 10951 10953 10955 10958 10961 10963 10965 10968 10971 10973 10976 10979 10983 10984 10982 10983 10987 10989 10989 10990 10990 10989 10990 10990 10991 10991 10993 10994 10996 10997 10998 10999 10999 10999 10999 11000 11000 11000 11000 11000 11001 11001 11001 11001 11001 11001 11002 11002 11002 11002 11002 11002 11002 11001 11002 11002 11002 11002 11002 11001 11001 11001 11001 11000 11001 11001 11000 11000 11000 11000 10999 10998 10997 10996 10995 10995 10994 10993 10992 10992 10992
10935 10938 10940 10942 10944 10947 10949 10951 10953 10955 10958 10961 10965 10967 10970 10973 10976 10977 10976 10977 10979 10982 10985 10986 10987 10987 10987 10987 10987 10987 10988 10989 10990 10991 10993 10994 10995 10994 10994 10995 10996 10995 10995 10995 10996 10997 10997 10997 10997 10998 10998 10998 10998 10998 10998 10998 10998 10998 10998 10998 10999 10999 11000 10999 10999 10998 10998 10998 10998 10997 10997 10997 10997 10998 10997 10996 10995 10994 10993 10992 10991 10990 10990 10990 10989
10928 10931 10933 10935 10938 10939 10941 10943 10945 10948 10951 10954 10957 10959 10962 10964 10967 10969 10970 10971 10972 10974 10976 10978 10980 10981 10981 10981 10981 10982 10983 10983 10983 10985 10987 10989 10991 10991 10990 10991 10991 10990 10990 10990 10990 10990 10991 10992 10993 10993 10994 10994 10994 10994 10994 10994 10994 10994 10993 10994 10995 10996 10996 10996 10996 10995 10995 10995 10995 10994 10994 10994 10994 10994 10994 10993 10992 10991 10991 10990 10989 10988 10987 10987 10987
10920 10922 10922 10926 10929 10930 10932 10934 10936 10940 10943 10945 10947 10949 10951 10954 10958 10960 10962 10964 10965 10966 10967 10969 10971 10972 10972 10973 10973 10974 10976 10977 10978 10980 10982 10984 10987 10988 10987 10987 10986 10985 10985 10985 10985 10985 10985 10986 10987 10988 10988 10989 10989 10989 10989 10990 10990 10989 10989 10989 10989 10990 10991 10991 10991 10991 10991 10991 10991 10991 10991 10991 10990 10990 10989 10989 10988 10987 10987 10986 10985 10985 10984 10983 10983
10909 10910 10912 10918 10922 10923 10924 10925 10927 10932 10935 10936 10936 10938 10941 10946 10949 10951 10954 10957 10958 10958 10960 10962 10962 10963 10965 10965 10966 10968 10970 10971 10973 10974 10976 10978 10981 10983 10984 10983 10982 10981 10979 10978 10979 10980 10980 10980 10981 10982 10983 10984 10984 10984 10984 10984 10984 10984 10983 10983 10983 10984 10984 10985 10986 10986 10986 10986 10986 10986 10986 10986 10985 10985 10984 10983 10983 10982 10982 10982 10981 10980 10979 10979 10978
10898 10900 10904 10910 10914 10916 10917 10918 10919 10923 10927 10927 10927 10928 10931 10937 10941 10943 10946 10949 10949 10950 10953 10954 10952 10953 10956 10957 10959 10961 10963 10965 10966 10968 10969 10971 10974 10976 10977 10977 10976 10976 10975 10973 10972 10973 10974 10973 10973 10975 10976 10977 10978 10979 10979 10979 10978 10978 10977 10977 10977 10977 10977 10978 10979 10980 10981 10980 10980 10980 10980 10980 10980 10979 10979 10978 10977 10977 10977 10976 10976 10975 10974 10974 10973
10888 10891 10895 10900 10904 10907 10908 10909 10911 10914 10917 10919 10920 10921 10924 10928 10932 10935 10938 10939 10940 10941 10945 10945 10944 10946 10948 10950 10953 10955 10957 10958 10960 10961 10963 10964 10966 10969 10971 10971 10970 10971 10971 10969 10966 10965 10966 10967 10967 10967 10968 10969 10970 10972 10972 10972 10971 10971 10970 10970 10970 10970 10970 10971 10972 10973 10974 10974 10973 10973 10972 10972 10972 10972 10972 10971 10971 10970 10971 10970 10970 10969 10969 10968 10968
10879 10883 10886 10890 10893 10896 10897 10899 10901 10904 10907 10910 10912 10915 10917 10921 10925 10928 10929 10930 10930 10931 10933 10935 10936 10938 10940 10942 10945 10947 10949 10951 10953 10954 10955 10957 10960 10963 10965 10964 10963 10963 10963 10961 10959 10958 10959 10960 10961 10960 10960 10961 10962 10963 10963 10964 10963 10963 10962 10962 10962 10962 10963 10964 10964 10965 10966 10966 10966 10965 10964 10964 10964 10963 10963 10963 10962 10963 10963 10963 10962 10961 10961 10961 10961
10870 10874 10877 10880 10883 10885 10887 10888 10891 10894 10897 10900 10903 10906 10909 10913 10917 10918 10919 10921 10923 10923 10923 10924 10926 10928 10930 10933 10936 10938 10940 10942 10944 10945 10947 10950 10953 10955 10956 10955 10954 10954 10954 10952 10951 10951 10951 10952 10953 10953 10953 10953 10954 10954 10955 10955 10954 10953 10953 10954 10954 10955 10955 10956 10957 10958 10958 10958 10958 10958 10957 10957 10956 10955 10954 10954 10954 10954 10954 10954 10954 10953 10953 10953 10953
10861 10865 10868 10871 10873 10876 10877 10879 10881 10884 10887 10889 10893 10896 10900 10904 10907 10908 10909 10912 10915 10914 10913 10915 10915 10916 10919 10923 10926 10927 10929 10932 10934 10937 10940 10942 10943 10945 10947 10948 10947 10946 10946 10945 10945 10945 10944 10945 10946 10946 10946 10946 10946 10947 10947 10946 10944 10944 10945 10946 10947 10947 10947 10948 10949 10950 10950 10950 10950 10949 10949 10948 10948 10947 10946 10946 10945 10945 10945 10945 10945 10944 10944 10944 10944
10851 10855 10858 10861 10864 10866 10869 10870 10872 10874 10876 10879 10882 10886 10890 10894 10897 10898 10900 10903 10904 10903 10903 10905 10906 10907 10910 10913 10915 10916 10919 10922 10924 10927 10930 10932 10934 10935 10938 10940 10940 10940 10940 10939 10939 10938 10938 10938 10938 10938 10939 10939 10939 10938 10938 10937 10936 10937 10937 10938 10938 10938 10938 10939 10940 10941 10942 10942 10941 10940 10940 10939 10938 10937 10937 10937 10936 10936 10935 10935 10935 10935 10935 10934 10934
10841 10844 10847 10850 10853 10856 10859 10861 10863 10864 10867 10869 10872 10876 10881 10884 10885 10887 10890 10892 10893 10893 10894 10897 10898 10898 10899 10902 10904 10906 10909 10912 10914 10916 10919 10922 10924 10925 10927 10929 10931 10931 10931 10931 10931 10931 10931 10930 10929 10929 10930 10931 10931 10930 10929 10928 10928 10929 10929 10929 10929 10929 10929 10930 10930 10931 10932 10932 10931 10930 10929 10928 10927 10927 10927 10927 10926 10925 10925 10925 10925 10925 10924 10924 10923
10829 10833 10836 10839 10841 10844 10847 10850 10853 10855 10857 10859 10862 10865 10870 10873 10875 10877 10880 10882 10883 10883 10885 10887 10889 10889 10888 10890 10894 10897 10900 10902 10904 10906 10908 10911 10914 10916 10917 10918 10920 10921 10922 10922 10923 10922 10922 10921 10920 10920 10921 10921 10921 10921 10921 10919 10920 10920 10920 10920 10920 10920 10920 10920 10920 10920 10920 10921 10920 10919 10917 10916 10916 10916 10916 10916 10916 10915 10914 10914 10914 10913 10913 10913 10912
10817 10821 10825 10828 10830 10832 10834 10838 10842 10845 10847 10849 10851 10854 10858 10861 10864 10867 10870 10872 10873 10873 10874 10876 10878 10878 10878 10879 10884 10887 10889 10891 10893 10895 10897 10899 10901 10904 10907 10908 10910 10911 10911 10912 10913 10912 10912 10911 10910 10910 10911 10911 10911 10912 10912 10910 10910 10910 10910 10910 10910 10910 10910 10910 10910 10910 10910 10910 10910 10908 10906 10905 10905 10904 10904 10904 10904 10904 10904 10904 10904 10903 10902 10902 10901
10806 10809 10812 10816 10819 10820 10822 10825 10829 10833 10836 10838 10840 10843 10846 10850 10853 10855 10858 10860 10861 10863 10864 10864 10866 10868 10868 10869 10872 10875 10877 10879 10882 10884 10886 10888 10890 10892 10894 10896 10898 10899 10900 10902 10903 10902 10901 10900 10900 10901 10901 10902 10902 10903 10903 10902 10901 10900 10900 10900 10899 10899 10899 10899 10899 10899 10899 10899 10899 10898 10896 10895 10894 10894 10893 10892 10892 10892 10892 10892 10892 10892 10891 10890 10889
10794 10797 10800 10804 10807 10809 10811 10813 10816 10820 10824 10826 10829 10832 10835 10837 10840 10843 10846 10848 10849 10851 10853 10853 10855 10857 10858 10859 10861 10862 10862 10866 10871 10873 10874 10876 10878 10879 10880 10881 10882 10885 10887 10890 10891 10892 10891 10891 10891 10891 10892 10892 10893 10893 10893 10892 10891 10889 10889 10888 10888 10888 10888 10888 10888 10888 10888 10887 10886 10885 10885 10884 10884 10884 10883 10882 10881 10880 10879 10879 10879 10879 10878 10877 10877
10782 10785 10788 10791 10794 10797 10799 10801 10804 10807 10810 10814 10818 10822 10824 10825 10827 10830 10833 10836 10838 10839 10840 10842 10843 10845 10847 10848 10849 10850 10850 10853 10856 10859 10861 10864 10866 10867 10868 10868 10868 10870 10872 10874 10877 10878 10879 10880 10881 10881 10882 10882 10882 10881 10881 10880 10878 10878 10877 10877 10877 10877 10877 10877 10877 10877 10876 10875 10874 10873 10873 10873 10873 10873 10872 10871 10870 10869 10868 10867 10867 10866 10866 10865 10864
10769 10773 10776 10779 10782 10784 10787 10789 10792 10794 10797 10800 10805 10810 10812 10813 10815 10818 10821 10824 10825 10827 10828 10829 10831 10833 10835 10836 10838 10839 10839 10840 10841 10844 10847 10850 10853 10855 10856 10856 10855 10855 10856 10858 10860 10863 10865 10866 10868 10869 10870 10870 10870 10869 10868 10867 10866 10865 10865 10864 10864 10864 10864 10864 10864 10864 10863 10863 10862 10861 10861 10861 10861 10861 10860 10859 10858 10857 10856 10856 10855 10854 10853 10852 10851
10756 10760 10763 10766 10769 10772 10774 10777 10779 10782 10784 10787 10791 10795 10799 10800 10802 10804 10808 10811 10812 10814 10815 10817 10818 10820 10822 10825 10826 10827 10827 10828 10829 10831 10832 10834 10837 10839 10840 10840 10840 10840 10841 10842 10845 10847 10849 10851 10853 10855 10855 10856 10856 10855 10855 10854 10853 10852 10851 10851 10850 10850 10850 10850 10849 10849 10849 10848 10848 10848 10847 10846 10847 10847 10847 10847 10846 10845 10844 10843 10841 10840 10839 10838 10836
10742 10745 10749 10752 10755 10758 10761 10763 10766 10769 10771 10774 10776 10780 10784 10787 10789 10791 10794 10796 10797 10797 10799 10802 10805 10806 10808 10810 10813 10814 10814 10815 10817 10818 10818 10818 10819 10821 10823 10824 10825 10825 10826 10827 10829 10831 10834 10836 10839 10840 10841 10841 10841 10841 10841 10840 10840 10839 10838 10837 10836 10835 10835 10835 10834 10834 10833 10833 10832 10832 10831 10831 10831 10832 10833 10833 10832 10831 10830 10829 10827 10826 10824 10823 10821
10726 10729 10732 10736 10740 10742 10746 10749 10751 10754 10757 10760 10762 10765 10769 10772 10775 10777 10779 10780 10781 10781 10782 10785 10789 10792 10792 10794 10796 10799 10801 10802 10803 10803 10803 10804 10804 10805 10807 10809 10810 10811 10811 10812 10813 10816 10819 10821 10823 10824 10825 10826 10827 10826 10827 10826 10826 10825 10824 10823 10822 10822 10822 10821 10820 10819 10818 10817 10816 10816 10816 10816 10816 10816 10817 10817 10816 10815 10814 10813 10812 10809 10807 10806 10805
10710 10712 10715 10719 10723 10727 10730 10733 10737 10740 10743 10744 10747 10750 10754 10757 10760 10761 10762 10764 10765 10765 10765 10767 10770 10774 10776 10777 10779 10782 10786 10789 10788 10787 10788 10790 10791 10792 10793 10794 10795 10795 10796 10797 10799 10801 10803 10806 10807 10809 10810 10811 10811 10811 10811 10810 10810 10809 10809 10809 10808 10808 10808 10807 10807 10806 10804 10803 10802 10801 10801 10801 10801 10801 10801 10801 10800 10799 10798 10797 10795 10793 10791 10789 10789
10692 10695 10698 10702 10706 10710 10713 10717 10721 10725 10728 10729 10731 10735 10739 10742 10744 10746 10747 10749 10750 10751 10750 10751 10752 10755 10758 10761 10764 10767 10771 10774 10774 10774 10774 10776 10777 10778 10778 10778 10779 10779 10780 10781 10783 10785 10787 10789 10791 10793 10795 10796 10796 10796 10795 10794 10794 10794 10794 10794 10793 10793 10792 10792 10791 10791 10790 10789 10787 10786 10786 10785 10785 10785 10786 10786 10785 10783 10781 10779 10778 10777 10776 10776 10775
10674 10677 10681 10684 10688 10692 10695 10699 10704 10708 10710 10712 10716 10720 10723 10726 10730 10732 10733 10734 10736 10737 10737 10737 10737 10738 10740 10745 10750 10755 10756 10757 10757 10757 10757 10759 10760 10761 10762 10762 10762 10763 10765 10766 10767 10768 10770 10772 10775 10777 10779 10779 10780 10780 10779 10778 10778 10778 10778 10778 10778 10777 10777 10776 10775 10774 10774 10773 10772 10771 10771 10770 10770 10770 10770 10769 10768 10766 10764 10763 10762 10762 10761 10760 10759
10655 10658 10662 10666 10671 10674 10677 10680 10685 10689 10691 10694 10698 10703 10706 10710 10714 10717 10718 10718 10720 10721 10723 10723 10723 10723 10724 10727 10732 10738 10740 10740 10740 10739 10739 10740 10742 10744 10744 10745 10746 10747 10749 10751 10751 10752 10754 10756 10758 10761 10762 10762 10762 10762 10762 10762 10762 10762 10762 10762 10761 10761 10761 10760 10759 10758 10758 10758 10758 10757 10757 10756 10755 10753 10752 10750 10749 10748 10748 10747 10747 10746 10745 10743 10742
10635 10639 10643 10648 10652 10657 10659 10661 10666 10671 10673 10677 10681 10685 10687 10691 10696 10700 10700 10701 10703 10706 10708 10709 10709 10709 10709 10709 10711 10715 10720 10723 10724 10724 10724 10723 10724 10725 10726 10727 10729 10731 10733 10735 10736 10737 10738 10740 10742 10743 10744 10745 10745 10745 10745 10745 10746 10746 10745 10745 10744 10744 10743 10743 10742 10742 10742 10742 10743 10743 10742 10741 10739 10736 10734 10733 10733 10733 10732 10731 10730 10729 10728 10727 10725
10615 10620 10624 10629 10633 10638 10641 10642 10646 10652 10657 10660 10664 10666 10668 10672 10677 10680 10681 10683 10686 10690 10693 10695 10694 10694 10693 10692 10692 10694 10698 10702 10706 10708 10709 10708 10707 10707 10707 10708 10709 10712 10714 10716 10719 10722 10725 10726 10726 10726 10726 10727 10727 10727 10728 10729 10729 10730 10729 10728 10727 10726 10725 10725 10725 10726 10726 10726 10726 10725 10724 10722 10721 10719 10718 10718 10717 10717 10716 10715 10714 10712 10711 10710 10708
10596 10600 10604 10608 10613 10618 10621 10623 10626 10632 10638 10642 10644 10646 10649 10654 10657 10659 10661 10664 10669 10675 10678 10679 10678 10677 10676 10675 10676 10678 10681 10684 10687 10689 10690 10690 10690 10690 10689 10690 10690 10692 10694 10697 10701 10705 10708 10710 10710 10709 10708 10708 10708 10709 10710 10712 10713 10713 10712 10711 10710 10709 10708 10708 10709 10709 10709 10709 10708 10706 10705 10704 10703 10702 10702 10701 10700 10699 10698 10697 10696 10695 10693 10692 10690
10577 10581 10584 10587 10592 10597 10601 10603 10607 10612 10616 10619 10622 10626 10630 10635 10637 10638 10641 10646 10652 10658 10661 10662 10661 10660 10659 10660 10661 10662 10664 10667 10669 10670 10671 10672 10672 10672 10672 10672 10673 10674 10675 10678 10681 10685 10688 10690 10691 10691 10690 10690 10689 10690 10691 10692 10693 10693 10692 10692 10692 10692 10692 10693 10693 10692 10691 10690 10689 10688 10687 10686 10685 10684 10684 10683 10682 10681 10680 10678 10677 10675 10674 10673 10671
10557 10561 10566 10569 10573 10577 10580 10583 10587 10591 10593 10596 10600 10606 10610 10614 10616 10618 10622 10627 10633 10638 10641 10642 10643 10644 10644 10644 10645 10646 10648 10650 10652 10654 10654 10655 10656 10656 10655 10655 10655 10656 10657 10659 10660 10663 10665 10668 10669 10670 10671 10672 10673 10673 10673 10672 10672 10671 10671 10671 10673 10674 10676 10676 10675 10674 10673 10673 10672 10671 10670 10668 10667 10666 10665 10664 10664 10663 10662 10660 10659 10657 10655 10654 10652
10538 10541 10547 10552 10555 10557 10558 10561 10565 10569 10571 10575 10580 10584 10588 10592 10595 10598 10602 10607 10612 10616 10619 10621 10624 10626 10628 10628 10628 10629 10631 10633 10635 10638 10639 10640 10640 10641 10640 10639 10639 10641 10641 10642 10642 10643 10644 10645 10647 10648 10650 10652 10654 10656 10656 10654 10652 10651 10652 10653 10654 10655 10656 10656 10656 10656 10656 10656 10656 10654 10653 10652 10650 10649 10648 10647 10646 10645 10644 10642 10640 10638 10636 10634 10631
10520 10523 10527 10532 10537 10539 10539 10539 10542 10546 10549 10553 10557 10562 10566 10570 10574 10577 10581 10586 10590 10594 10598 10601 10604 10606 10609 10610 10612 10612 10613 10614 10617 10620 10622 10624 10624 10624 10625 10625 10626 10627 10628 10628 10628 10627 10627 10627 10628 10628 10629 10630 10632 10633 10634 10634 10634 10634 10635 10635 10635 10635 10635 10636 10636 10637 10637 10637 10636 10636 10635 10633 10632 10631 10629 10628 10626 10625 10623 10621 10619 10617 10615 10612 10610
10504 10506 10509 10513 10517 10519 10518 10517 10520 10524 10528 10530 10534 10540 10546 10550 10553 10556 10561 10565 10569 10573 10577 10580 10583 10587 10590 10592 10593 10594 10594 10595 10597 10600 10604 10607 10607 10606 10606 10608 10610 10612 10613 10614 10614 10613 10613 10613 10613 10613 10613 10612 10612 10612 10613 10614 10616 10616 10617 10616 10616 10616 10616 10617 10617 10617 10616 10616 10615 10615 10614 10613 10612 10611 10609 10608 10606 10605 10603 10601 10599 10596 10594 10592 10590
10487 10489 10491 10493 10496 10497 10496 10497 10500 10505 10509 10511 10514 10519 10524 10528 10531 10536 10541 10545 10548 10551 10555 10558 10562 10567 10571 10573 10574 10574 10574 10575 10577 10580 10583 10586 10587 10587 10588 10590 10591 10593 10595 10597 10598 10598 10598 10599 10599 10599 10599 10598 10597 10596 10597 10597 10598 10598 10598 10599 10599 10599 10599 10599 10599 10599 10598 10598 10597 10596 10596 10595 10594 10593 10591 10590 10588 10587 10585 10583 10580 10578 10576 10573 10571